Weather History for Gulf Shores, AL

Change the Weather History Date:

Wednesday, April 16, 2014

  Actual Average (KPNS) Record (KPNS)
Temperature  
Mean Temperature 50 °F 67 °F  
Max Temperature 62 °F 76 °F 85 °F (1972)
Min Temperature 38 °F 58 °F 42 °F (1962)
Degree Days  
Heating Degree Days 15 2  
Month to date heating degree days 40  
Since 1 July heating degree days 1524  
Cooling Degree Days 0 3  
Month to date cooling degree days 39  
Year to date cooling degree days 86  
Moisture  
Dew Point 39 °F    
Average Humidity 68    
Maximum Humidity 96    
Minimum Humidity 44    
Precipitation  
Precipitation 0.00 in 0.14 in 2.32 in (1880)
Month to date precipitation 2.46  
Year to date precipitation 17.96  
Sea Level Pressure  
Sea Level Pressure 30.18 in    
Wind  
Wind Speed 5 mph (ENE)    
Max Wind Speed 13 mph    
Max Gust Speed 21 mph    
Visibility 10 miles    
Events      
T = Trace of Precipitation, MM = Missing Value Source: NWS Daily Summary

Daily Weather History Graph

Daily Weather History Graph

Search for Another Location

Airport:

Trip Planner

Search our weather history database for the weather conditions in past years. The results will help you decide how hot, cold, wet, or windy it might be!

Date:

Astronomy

Apr. 16, 2014 Rise Set
Actual Time 6:22 AM CDT 7:18 PM CDT
Civil Twilight 5:57 AM CDT 7:43 PM CDT
Nautical Twilight 5:28 AM CDT 8:12 PM CDT
Astronomical Twilight 4:58 AM CDT 8:42 PM CDT
Moon 8:56 PM CDT (4/16) 7:13 AM CDT (4/16)
Length of Visible Light 13h 45m
Length of Day
12h 56m
Full, 98% of the Moon is Illuminated
Apr 16
Full
Apr 22
Last Quarter
Apr 29
New
May 6
First Quarter
May 14
Full

Hourly Weather History & Observations

Time (CDT) Temp. Windchill Dew Point Humidity Pressure Visibility Wind Dir Wind Speed Gust Speed Precip Events Conditions
12:15 AM 46.6 °F - 31.6 °F 56% 30.16 in 10.0 mi North 5.8 mph - N/A   Clear
12:35 AM 46.2 °F 43.3 °F 31.6 °F 57% 30.15 in 10.0 mi North 5.8 mph - N/A   Clear
12:55 AM 45.5 °F 41.8 °F 31.8 °F 59% 30.15 in 10.0 mi North 6.9 mph - N/A   Clear
1:15 AM 45.1 °F 42.0 °F 31.6 °F 59% 30.15 in 10.0 mi North 5.8 mph - N/A   Clear
1:35 AM 44.8 °F 42.4 °F 31.5 °F 60% 30.16 in 10.0 mi North 4.6 mph - N/A   Clear
1:55 AM 43.9 °F 41.3 °F 32.0 °F 63% 30.16 in 10.0 mi North 4.6 mph - N/A   Clear
2:15 AM 43.3 °F 41.7 °F 32.0 °F 64% 30.16 in 10.0 mi NNE 3.5 mph - N/A   Clear
2:35 AM 42.6 °F 40.9 °F 32.0 °F 66% 30.16 in 10.0 mi NNE 3.5 mph - N/A   Clear
2:55 AM 41.9 °F - 32.2 °F 68% 30.17 in 10.0 mi Calm Calm - N/A   Clear
3:15 AM 41.0 °F 39.0 °F 32.9 °F 73% 30.16 in 10.0 mi NNE 3.5 mph - N/A   Clear
3:35 AM 40.1 °F - 33.6 °F 78% 30.15 in 10.0 mi Calm Calm - N/A   Clear
3:55 AM 40.1 °F 38.0 °F 33.3 °F 77% 30.15 in 10.0 mi NNE 3.5 mph - N/A   Clear
4:15 AM 39.6 °F 36.3 °F 33.4 °F 79% 30.15 in 10.0 mi NE 4.6 mph - N/A   Clear
4:35 AM 39.0 °F 35.7 °F 33.8 °F 82% 30.14 in 10.0 mi NE 4.6 mph - N/A   Clear
5:15 AM 39.0 °F 35.7 °F 33.8 °F 82% 30.15 in 10.0 mi NNE 4.6 mph - N/A   Clear
5:35 AM 38.7 °F 36.3 °F 33.8 °F 83% 30.16 in 10.0 mi NNE 3.5 mph - N/A   Clear
5:55 AM 38.5 °F 35.0 °F 33.3 °F 81% 30.17 in 10.0 mi NE 4.6 mph - N/A   Clear
6:15 AM 38.5 °F 36.1 °F 32.9 °F 80% 30.18 in 10.0 mi NNE 3.5 mph - N/A   Clear
6:35 AM 38.3 °F - 32.9 °F 81% 30.20 in 10.0 mi Calm Calm - N/A   Clear
6:55 AM 39.0 °F 36.8 °F 33.3 °F 80% 30.21 in 10.0 mi NNE 3.5 mph - N/A   Clear
7:15 AM 40.1 °F - 33.4 °F 77% 30.22 in 10.0 mi Calm Calm - N/A   Clear
7:35 AM 41.4 °F 37.6 °F 33.4 °F 73% 30.23 in 10.0 mi NNE 5.8 mph - N/A   Clear
7:55 AM 42.8 °F 40.1 °F 33.1 °F 69% 30.23 in 10.0 mi NE 4.6 mph - N/A   Clear
8:15 AM 43.9 °F 40.5 °F 32.0 °F 63% 30.22 in 10.0 mi NE 5.8 mph - N/A   Clear
8:35 AM 45.0 °F 38.9 °F 30.7 °F 57% 30.23 in 10.0 mi ENE 12.7 mph 16.1 mph N/A   Clear
8:55 AM 46.4 °F 41.1 °F 31.1 °F 55% 30.23 in 10.0 mi ENE 11.5 mph 16.1 mph N/A   Clear
9:15 AM 47.3 °F - 30.6 °F 52% 30.23 in 10.0 mi ENE 10.4 mph - N/A   Clear
9:35 AM 48.7 °F - 32.2 °F 53% 30.23 in 10.0 mi NE 11.5 mph 16.1 mph N/A   Clear
9:55 AM 49.3 °F - 33.1 °F 54% 30.24 in 10.0 mi East 11.5 mph 20.7 mph N/A   Clear
10:15 AM 50.0 °F - 34.0 °F 54% 30.24 in 10.0 mi East 8.1 mph - N/A   Clear
10:35 AM 50.5 °F - 34.9 °F 55% 30.25 in 10.0 mi East 9.2 mph 19.6 mph N/A   Clear
10:55 AM 52.0 °F - 36.1 °F 55% 30.25 in 10.0 mi East 10.4 mph - N/A   Clear
11:15 AM 52.7 °F - 35.8 °F 53% 30.24 in 10.0 mi ESE 6.9 mph - N/A   Clear
11:35 AM 53.2 °F - 35.6 °F 51% 30.23 in 10.0 mi East 9.2 mph 16.1 mph N/A   Clear
11:55 AM 54.1 °F - 36.0 °F 50% 30.23 in 10.0 mi ESE 9.2 mph - N/A   Clear
12:15 PM 55.9 °F - 37.4 °F 50% 30.21 in 10.0 mi East 9.2 mph - N/A   Clear
1:20 PM 57.9 °F - 37.9 °F 47% 30.18 in 10.0 mi East 11.5 mph - N/A   Clear
1:35 PM 58.8 °F - 37.9 °F 46% 30.18 in 10.0 mi East 12.7 mph - N/A   Clear
1:55 PM 60.1 °F - 38.8 °F 45% 30.18 in 10.0 mi ESE 9.2 mph - N/A   Clear
2:10 PM 60.1 °F - 38.1 °F 44% 30.17 in 10.0 mi East 6.9 mph - N/A   Clear
2:35 PM 61.3 °F - 39.7 °F 45% 30.17 in 10.0 mi East 5.8 mph - N/A   Clear
2:55 PM 62.1 °F - 40.8 °F 46% 30.16 in 10.0 mi ESE 9.2 mph - N/A   Clear
3:15 PM 61.0 °F - 43.3 °F 52% 30.16 in 10.0 mi SE 11.5 mph - N/A   Clear
3:35 PM 61.0 °F - 43.2 °F 52% 30.15 in 10.0 mi ESE 10.4 mph - N/A   Clear
3:50 PM 60.3 °F - 43.7 °F 54% 30.14 in 10.0 mi SE 12.7 mph - N/A   Clear
4:15 PM 60.6 °F - 45.1 °F 57% 30.14 in 10.0 mi SE 8.1 mph - N/A   Clear
4:40 PM 59.9 °F - 44.2 °F 56% 30.13 in 10.0 mi SE 8.1 mph - N/A   Clear
4:55 PM 59.4 °F - 44.4 °F 58% 30.13 in 10.0 mi SSE 8.1 mph - N/A   Clear
5:15 PM 60.1 °F - 44.6 °F 57% 30.13 in 10.0 mi SSE 8.1 mph - N/A   Clear
5:35 PM 59.4 °F - 45.0 °F 59% 30.14 in 10.0 mi SSE 10.4 mph - N/A   Clear
5:55 PM 59.0 °F - 45.3 °F 60% 30.14 in 10.0 mi SSE 6.9 mph - N/A   Clear
6:15 PM 58.5 °F - 46.0 °F 63% 30.14 in 10.0 mi SSE 6.9 mph - N/A   Clear
6:35 PM 57.9 °F - 46.4 °F 65% 30.14 in 10.0 mi SSE 5.8 mph - N/A   Clear
6:55 PM 57.6 °F - 46.8 °F 67% 30.15 in 10.0 mi South 4.6 mph - N/A   Clear
7:15 PM 56.3 °F - 47.3 °F 72% 30.15 in 10.0 mi Calm Calm - N/A   Clear
7:55 PM 53.2 °F - 47.7 °F 81% 30.15 in 10.0 mi Calm Calm - N/A   Clear
8:15 PM 52.5 °F - 48.6 °F 86% 30.15 in 10.0 mi Calm Calm - N/A   Clear
8:35 PM 50.4 °F - 48.6 °F 94% 30.15 in 10.0 mi Calm Calm - N/A   Clear
8:55 PM 50.9 °F - 48.7 °F 92% 30.15 in 10.0 mi North 4.6 mph - N/A   Clear
9:15 PM 48.6 °F - 46.9 °F 94% 30.16 in 10.0 mi Calm Calm - N/A   Clear
9:35 PM 48.4 °F - 47.3 °F 96% 30.16 in 10.0 mi Calm Calm - N/A   Clear
9:55 PM 49.1 °F - 48.0 °F 96% 30.16 in 10.0 mi Calm Calm - N/A   Clear
10:15 PM 47.5 °F - 46.0 °F 95% 30.16 in 10.0 mi Calm Calm - N/A   Clear
10:35 PM 47.8 °F - 46.8 °F 96% 30.17 in 10.0 mi Calm Calm - N/A   Clear
10:55 PM 49.1 °F - 47.3 °F 93% 30.18 in 10.0 mi Calm Calm - N/A   Clear
11:15 PM 48.6 °F - 47.5 °F 96% 30.18 in 10.0 mi Calm Calm - N/A   Clear
11:35 PM 49.1 °F - 47.3 °F 93% 30.17 in 10.0 mi Calm Calm - N/A   Clear
11:55 PM 49.1 °F - 46.4 °F 90% 30.17 in 10.0 mi Calm Calm - N/A   Clear